owner,sensor,date,latitude,longitude,vertical_datum,wind_speed,wind_to_direction,wind_speed_of_gust,qcFlag 
TCOON,ioos:station:TCOON:057:1,2015-02-01T00:00:00Z,28.4460,-96.3961,0.0,4.9,125.0,5.5,'11111222,11111222,11111222' 
TCOON,ioos:station:TCOON:057:1,2015-02-01T00:06:00Z,28.4460,-96.3961,0.0,4.7,122.0,5.4,'11111222,11111222,11111222' 
TCOON,ioos:station:TCOON:057:1,2015-02-01T00:12:00Z,28.4460,-96.3961,0.0,4.6,120.0,5.4,'11111222,11111222,11111222' 
TCOON,ioos:station:TCOON:057:1,2015-02-01T00:18:00Z,28.4460,-96.3961,0.0,4.6,120.0,5.4,'1111122,1111122,1111122' 
TCOON,ioos:station:TCOON:057:1,2015-02-01T00:24:00Z,28.4460,-96.3961,0.0,4.5,122.0,5.1,'11111222,11111222,11111222' 
TCOON,ioos:station:TCOON:057:1,2015-02-01T00:30:00Z,28.4460,-96.3961,0.0,4.5,127.0,4.9,'11111222,11111222,11111222' 
TCOON,ioos:station:TCOON:057:1,2015-02-01T00:36:00Z,28.4460,-96.3961,0.0,4.3,121.0,4.8,'11111222,11111222,11111222' 
TCOON,ioos:station:TCOON:057:1,2015-02-01T00:42:00Z,28.4460,-96.3961,0.0,4.2,123.0,4.6,'11111222,11111222,11111222' 
TCOON,ioos:station:TCOON:057:1,2015-02-01T00:48:00Z,28.4460,-96.3961,0.0,4.1,124.0,4.6,'11111222,11111222,11111222' 
TCOON,ioos:station:TCOON:057:1,2015-02-01T00:54:00Z,28.4460,-96.3961,0.0,4.4,123.0,5.1,'11111222,11111222,11111222' 
TCOON,ioos:station:TCOON:057:1,2015-02-01T01:00:00Z,28.4460,-96.3961,0.0,3.8,123.0,4.5,'11111222,11111222,11111222' 
TCOON,ioos:station:TCOON:057:1,2015-02-01T01:06:00Z,28.4460,-96.3961,0.0,3.6,121.0,4.0,'11111222,11111222,11111222' 
TCOON,ioos:station:TCOON:057:1,2015-02-01T01:12:00Z,28.4460,-96.3961,0.0,3.6,119.0,3.9,'11111222,11111222,11111222' 
TCOON,ioos:station:TCOON:057:1,2015-02-01T01:18:00Z,28.4460,-96.3961,0.0,3.6,119.0,3.9,'1111122,1111122,1111122' 
TCOON,ioos:station:TCOON:057:1,2015-02-01T01:24:00Z,28.4460,-96.3961,0.0,4.0,116.0,4.5,'11111222,11111222,11111222' 
TCOON,ioos:station:TCOON:057:1,2015-02-01T01:30:00Z,28.4460,-96.3961,0.0,4.5,121.0,5.2,'11111222,11111222,11111222' 
TCOON,ioos:station:TCOON:057:1,2015-02-01T01:36:00Z,28.4460,-96.3961,0.0,4.5,122.0,5.7,'11111222,11111222,11111222' 
TCOON,ioos:station:TCOON:057:1,2015-02-01T01:42:00Z,28.4460,-96.3961,0.0,3.7,120.0,4.6,'11111222,11111222,11111222' 
TCOON,ioos:station:TCOON:057:1,2015-02-01T01:48:00Z,28.4460,-96.3961,0.0,3.7,112.0,4.0,'11111222,11111222,11111222' 
TCOON,ioos:station:TCOON:057:1,2015-02-01T01:54:00Z,28.4460,-96.3961,0.0,3.8,112.0,4.2,'11111222,11111222,11111222' 
TCOON,ioos:station:TCOON:057:1,2015-02-01T02:00:00Z,28.4460,-96.3961,0.0,3.7,112.0,4.0,'11111222,11111222,11111222' 
TCOON,ioos:station:TCOON:057:1,2015-02-01T02:06:00Z,28.4460,-96.3961,0.0,3.9,110.0,4.3,'11111222,11111222,11111222' 
TCOON,ioos:station:TCOON:057:1,2015-02-01T02:12:00Z,28.4460,-96.3961,0.0,2.2,172.0,3.9,'11111222,11111222,11111222' 
TCOON,ioos:station:TCOON:057:1,2015-02-01T02:18:00Z,28.4460,-96.3961,0.0,2.2,172.0,3.9,'1111122,1111122,1111122' 
TCOON,ioos:station:TCOON:057:1,2015-02-01T02:24:00Z,28.4460,-96.3961,0.0,3.2,118.0,3.6,'11111222,11111222,11111222' 
TCOON,ioos:station:TCOON:057:1,2015-02-01T02:30:00Z,28.4460,-96.3961,0.0,3.6,111.0,3.9,'11111222,11111222,11111222' 
TCOON,ioos:station:TCOON:057:1,2015-02-01T02:36:00Z,28.4460,-96.3961,0.0,4.5,110.0,4.8,'11111222,11111222,11111222' 
TCOON,ioos:station:TCOON:057:1,2015-02-01T02:42:00Z,28.4460,-96.3961,0.0,4.7,113.0,5.1,'11111222,11111222,11111222' 
TCOON,ioos:station:TCOON:057:1,2015-02-01T02:48:00Z,28.4460,-96.3961,0.0,5.1,117.0,5.8,'11111222,11111222,11111222' 
TCOON,ioos:station:TCOON:057:1,2015-02-01T02:54:00Z,28.4460,-96.3961,0.0,5.7,116.0,6.2,'11111222,11111222,11111222' 
TCOON,ioos:station:TCOON:057:1,2015-02-01T03:00:00Z,28.4460,-96.3961,0.0,6.3,119.0,6.8,'11111222,11111222,11111222' 
TCOON,ioos:station:TCOON:057:1,2015-02-01T03:06:00Z,28.4460,-96.3961,0.0,6.0,127.0,6.9,'11111222,11111222,11111222' 
TCOON,ioos:station:TCOON:057:1,2015-02-01T03:12:00Z,28.4460,-96.3961,0.0,5.8,127.0,6.6,'11111222,11111222,11111222' 
TCOON,ioos:station:TCOON:057:1,2015-02-01T03:18:00Z,28.4460,-96.3961,0.0,5.8,127.0,6.6,'1111122,1111122,1111122' 
TCOON,ioos:station:TCOON:057:1,2015-02-01T03:24:00Z,28.4460,-96.3961,0.0,5.9,130.0,6.3,'11111222,11111222,11111222' 
TCOON,ioos:station:TCOON:057:1,2015-02-01T03:30:00Z,28.4460,-96.3961,0.0,5.6,132.0,6.4,'11111222,11111222,11111222' 
TCOON,ioos:station:TCOON:057:1,2015-02-01T03:36:00Z,28.4460,-96.3961,0.0,5.2,135.0,6.0,'11111222,11111222,11111222' 
TCOON,ioos:station:TCOON:057:1,2015-02-01T03:42:00Z,28.4460,-96.3961,0.0,5.1,136.0,5.8,'11111222,11111222,11111222' 
TCOON,ioos:station:TCOON:057:1,2015-02-01T03:48:00Z,28.4460,-96.3961,0.0,5.1,134.0,5.6,'11111222,11111222,11111222' 
TCOON,ioos:station:TCOON:057:1,2015-02-01T03:54:00Z,28.4460,-96.3961,0.0,4.9,133.0,5.5,'11111222,11111222,11111222' 
TCOON,ioos:station:TCOON:057:1,2015-02-01T04:00:00Z,28.4460,-96.3961,0.0,5.6,135.0,6.0,'11111222,11111222,11111222' 
TCOON,ioos:station:TCOON:057:1,2015-02-01T04:06:00Z,28.4460,-96.3961,0.0,5.9,139.0,6.7,'11111222,11111222,11111222' 
TCOON,ioos:station:TCOON:057:1,2015-02-01T04:12:00Z,28.4460,-96.3961,0.0,5.9,139.0,6.7,'1111122,1111122,1111122' 
TCOON,ioos:station:TCOON:057:1,2015-02-01T04:18:00Z,28.4460,-96.3961,0.0,6.2,135.0,7.1,'11111222,11111222,11111222' 
TCOON,ioos:station:TCOON:057:1,2015-02-01T04:24:00Z,28.4460,-96.3961,0.0,6.5,134.0,7.0,'11111222,11111222,11111222' 
TCOON,ioos:station:TCOON:057:1,2015-02-01T04:30:00Z,28.4460,-96.3961,0.0,7.3,136.0,8.2,'11111222,11111222,11111222' 
TCOON,ioos:station:TCOON:057:1,2015-02-01T04:36:00Z,28.4460,-96.3961,0.0,8.1,132.0,8.7,'11111222,11111222,11111222' 
TCOON,ioos:station:TCOON:057:1,2015-02-01T04:42:00Z,28.4460,-96.3961,0.0,8.7,127.0,9.4,'11111222,11111222,11111222' 
TCOON,ioos:station:TCOON:057:1,2015-02-01T04:48:00Z,28.4460,-96.3961,0.0,8.5,130.0,10.0,'11111222,11111222,11111222' 
TCOON,ioos:station:TCOON:057:1,2015-02-01T04:54:00Z,28.4460,-96.3961,0.0,9.0,132.0,10.1,'11111222,11111222,11111222' 
TCOON,ioos:station:TCOON:057:1,2015-02-01T05:00:00Z,28.4460,-96.3961,0.0,10.0,128.0,11.0,'11111222,11111222,11111222' 
TCOON,ioos:station:TCOON:057:1,2015-02-01T05:06:00Z,28.4460,-96.3961,0.0,9.2,129.0,11.4,'11111222,11111222,11111222' 
TCOON,ioos:station:TCOON:057:1,2015-02-01T05:12:00Z,28.4460,-96.3961,0.0,8.3,136.0,9.7,'11111222,11111222,11111222' 
TCOON,ioos:station:TCOON:057:1,2015-02-01T05:18:00Z,28.4460,-96.3961,0.0,8.3,136.0,9.7,'1111122,1111122,1111122' 
TCOON,ioos:station:TCOON:057:1,2015-02-01T05:24:00Z,28.4460,-96.3961,0.0,8.8,138.0,10.2,'11111222,11111222,11111222' 
TCOON,ioos:station:TCOON:057:1,2015-02-01T05:30:00Z,28.4460,-96.3961,0.0,8.5,135.0,9.7,'11111222,11111222,11111222' 
TCOON,ioos:station:TCOON:057:1,2015-02-01T05:36:00Z,28.4460,-96.3961,0.0,7.9,135.0,10.1,'11111222,11111222,11111222' 
TCOON,ioos:station:TCOON:057:1,2015-02-01T05:42:00Z,28.4460,-96.3961,0.0,8.0,138.0,9.1,'11111222,11111222,11111222' 
TCOON,ioos:station:TCOON:057:1,2015-02-01T05:48:00Z,28.4460,-96.3961,0.0,8.0,140.0,9.4,'11111222,11111222,11111222' 
TCOON,ioos:station:TCOON:057:1,2015-02-01T05:54:00Z,28.4460,-96.3961,0.0,7.7,140.0,9.3,'11111222,11111222,11111222' 
TCOON,ioos:station:TCOON:057:1,2015-02-01T06:00:00Z,28.4460,-96.3961,0.0,7.2,141.0,8.6,'11111222,11111222,11111222' 
TCOON,ioos:station:TCOON:057:1,2015-02-01T06:06:00Z,28.4460,-96.3961,0.0,6.4,136.0,8.3,'11111222,11111222,11111222' 
TCOON,ioos:station:TCOON:057:1,2015-02-01T06:12:00Z,28.4460,-96.3961,0.0,5.6,153.0,7.6,'11111222,11111222,11111222' 
TCOON,ioos:station:TCOON:057:1,2015-02-01T06:18:00Z,28.4460,-96.3961,0.0,5.6,153.0,7.6,'1111122,1111122,1111122' 
TCOON,ioos:station:TCOON:057:1,2015-02-01T06:24:00Z,28.4460,-96.3961,0.0,5.5,150.0,6.7,'11111222,11111222,11111222' 
TCOON,ioos:station:TCOON:057:1,2015-02-01T06:30:00Z,28.4460,-96.3961,0.0,5.3,148.0,6.4,'11111222,11111222,11111222' 
TCOON,ioos:station:TCOON:057:1,2015-02-01T06:36:00Z,28.4460,-96.3961,0.0,4.6,156.0,5.3,'11111222,11111222,11111222' 
TCOON,ioos:station:TCOON:057:1,2015-02-01T06:42:00Z,28.4460,-96.3961,0.0,4.1,150.0,4.7,'11111222,11111222,11111222' 
TCOON,ioos:station:TCOON:057:1,2015-02-01T06:48:00Z,28.4460,-96.3961,0.0,4.3,137.0,4.7,'11111222,11111222,11111222' 
TCOON,ioos:station:TCOON:057:1,2015-02-01T06:54:00Z,28.4460,-96.3961,0.0,3.1,161.0,4.4,'11111222,11111222,11111222' 
TCOON,ioos:station:TCOON:057:1,2015-02-01T07:00:00Z,28.4460,-96.3961,0.0,3.5,147.0,3.7,'11111222,11111222,11111222' 
TCOON,ioos:station:TCOON:057:1,2015-02-01T07:06:00Z,28.4460,-96.3961,0.0,3.5,147.0,4.0,'11111222,11111222,11111222' 
TCOON,ioos:station:TCOON:057:1,2015-02-01T07:12:00Z,28.4460,-96.3961,0.0,3.0,153.0,3.6,'11111222,11111222,11111222' 
TCOON,ioos:station:TCOON:057:1,2015-02-01T07:18:00Z,28.4460,-96.3961,0.0,3.0,153.0,3.6,'1111122,1111122,1111122' 
TCOON,ioos:station:TCOON:057:1,2015-02-01T07:24:00Z,28.4460,-96.3961,0.0,1.8,192.0,2.4,'11111222,11111222,11111222' 
TCOON,ioos:station:TCOON:057:1,2015-02-01T07:30:00Z,28.4460,-96.3961,0.0,1.4,158.0,1.8,'11111222,11111222,11111222' 
TCOON,ioos:station:TCOON:057:1,2015-02-01T07:36:00Z,28.4460,-96.3961,0.0,1.6,194.0,1.7,'11111222,11111222,11111222' 
TCOON,ioos:station:TCOON:057:1,2015-02-01T07:42:00Z,28.4460,-96.3961,0.0,1.2,203.0,1.6,'11111222,11111222,11111222' 
TCOON,ioos:station:TCOON:057:1,2015-02-01T07:48:00Z,28.4460,-96.3961,0.0,1.3,216.0,1.6,'11111222,11111222,11111222' 
TCOON,ioos:station:TCOON:057:1,2015-02-01T07:54:00Z,28.4460,-96.3961,0.0,0.8,243.0,1.3,'11111222,11111222,11111222' 
TCOON,ioos:station:TCOON:057:1,2015-02-01T08:00:00Z,28.4460,-96.3961,0.0,0.6,262.0,0.9,'11111222,11111222,11111222' 
TCOON,ioos:station:TCOON:057:1,2015-02-01T08:06:00Z,28.4460,-96.3961,0.0,0.5,274.0,0.9,'11111222,11111222,11111222' 
TCOON,ioos:station:TCOON:057:1,2015-02-01T08:12:00Z,28.4460,-96.3961,0.0,0.0,266.0,0.5,'11111222,11111222,11111222' 
TCOON,ioos:station:TCOON:057:1,2015-02-01T08:18:00Z,28.4460,-96.3961,0.0,0.0,266.0,0.5,'1114422,1111122,1111122' 
TCOON,ioos:station:TCOON:057:1,2015-02-01T08:24:00Z,28.4460,-96.3961,0.0,0.0,26.0,0.3,'11111222,11111222,11111222' 
TCOON,ioos:station:TCOON:057:1,2015-02-01T08:30:00Z,28.4460,-96.3961,0.0,0.0,26.0,0.0,'11111222,11111222,11111222' 
TCOON,ioos:station:TCOON:057:1,2015-02-01T08:36:00Z,28.4460,-96.3961,0.0,0.0,48.0,0.0,'11111222,11111222,11111222' 
TCOON,ioos:station:TCOON:057:1,2015-02-01T08:42:00Z,28.4460,-96.3961,0.0,0.3,97.0,0.4,'11111222,11111222,11111222' 
TCOON,ioos:station:TCOON:057:1,2015-02-01T08:48:00Z,28.4460,-96.3961,0.0,0.9,80.0,1.0,'11111222,11111222,11111222' 
TCOON,ioos:station:TCOON:057:1,2015-02-01T08:54:00Z,28.4460,-96.3961,0.0,1.2,73.0,1.3,'11111222,11111222,11111222' 
TCOON,ioos:station:TCOON:057:1,2015-02-01T09:00:00Z,28.4460,-96.3961,0.0,1.1,64.0,1.3,'11111222,11111222,11111222' 
TCOON,ioos:station:TCOON:057:1,2015-02-01T09:06:00Z,28.4460,-96.3961,0.0,0.9,39.0,1.0,'11111222,11111222,11111222' 
TCOON,ioos:station:TCOON:057:1,2015-02-01T09:12:00Z,28.4460,-96.3961,0.0,0.5,41.0,0.8,'11111222,11111222,11111222' 
TCOON,ioos:station:TCOON:057:1,2015-02-01T09:18:00Z,28.4460,-96.3961,0.0,0.5,41.0,0.8,'1111122,1111122,1111122' 
TCOON,ioos:station:TCOON:057:1,2015-02-01T09:24:00Z,28.4460,-96.3961,0.0,1.7,65.0,2.1,'11111222,11111222,11111222' 
TCOON,ioos:station:TCOON:057:1,2015-02-01T09:30:00Z,28.4460,-96.3961,0.0,1.7,70.0,1.7,'11111222,11111222,11111222' 
TCOON,ioos:station:TCOON:057:1,2015-02-01T09:36:00Z,28.4460,-96.3961,0.0,1.6,80.0,1.7,'11111222,11111222,11111222' 
TCOON,ioos:station:TCOON:057:1,2015-02-01T09:42:00Z,28.4460,-96.3961,0.0,1.8,80.0,1.9,'11111222,11111222,11111222' 
TCOON,ioos:station:TCOON:057:1,2015-02-01T09:48:00Z,28.4460,-96.3961,0.0,1.9,89.0,2.1,'11111222,11111222,11111222' 
TCOON,ioos:station:TCOON:057:1,2015-02-01T09:54:00Z,28.4460,-96.3961,0.0,2.1,88.0,2.2,'11111222,11111222,11111222' 
TCOON,ioos:station:TCOON:057:1,2015-02-01T10:00:00Z,28.4460,-96.3961,0.0,1.8,69.0,2.2,'11111222,11111222,11111222' 
TCOON,ioos:station:TCOON:057:1,2015-02-01T10:06:00Z,28.4460,-96.3961,0.0,1.2,53.0,1.7,'11111222,11111222,11111222' 
TCOON,ioos:station:TCOON:057:1,2015-02-01T10:12:00Z,28.4460,-96.3961,0.0,1.2,53.0,1.7,'1111122,1111122,1111122' 
TCOON,ioos:station:TCOON:057:1,2015-02-01T10:18:00Z,28.4460,-96.3961,0.0,1.3,73.0,1.4,'11111222,11111222,11111222' 
TCOON,ioos:station:TCOON:057:1,2015-02-01T10:24:00Z,28.4460,-96.3961,0.0,1.1,81.0,1.4,'11111222,11111222,11111222' 
TCOON,ioos:station:TCOON:057:1,2015-02-01T10:30:00Z,28.4460,-96.3961,0.0,0.6,76.0,1.1,'11111222,11111222,11111222' 
TCOON,ioos:station:TCOON:057:1,2015-02-01T10:36:00Z,28.4460,-96.3961,0.0,0.0,73.0,0.4,'11111222,11111222,11111222' 
TCOON,ioos:station:TCOON:057:1,2015-02-01T10:42:00Z,28.4460,-96.3961,0.0,0.4,73.0,0.5,'11111222,11111222,11111222' 
TCOON,ioos:station:TCOON:057:1,2015-02-01T10:48:00Z,28.4460,-96.3961,0.0,0.7,76.0,0.8,'11111222,11111222,11111222' 
TCOON,ioos:station:TCOON:057:1,2015-02-01T10:54:00Z,28.4460,-96.3961,0.0,1.0,96.0,1.1,'11111222,11111222,11111222' 
TCOON,ioos:station:TCOON:057:1,2015-02-01T11:00:00Z,28.4460,-96.3961,0.0,1.3,101.0,1.3,'11111222,11111222,11111222' 
TCOON,ioos:station:TCOON:057:1,2015-02-01T11:06:00Z,28.4460,-96.3961,0.0,1.4,95.0,1.5,'11111222,11111222,11111222' 
TCOON,ioos:station:TCOON:057:1,2015-02-01T11:12:00Z,28.4460,-96.3961,0.0,1.2,94.0,1.5,'11111222,11111222,11111222' 
TCOON,ioos:station:TCOON:057:1,2015-02-01T11:18:00Z,28.4460,-96.3961,0.0,1.2,94.0,1.5,'1111122,1111122,1111122' 
TCOON,ioos:station:TCOON:057:1,2015-02-01T11:24:00Z,28.4460,-96.3961,0.0,0.0,51.0,1.1,'11111222,11111222,11111222' 
TCOON,ioos:station:TCOON:057:1,2015-02-01T11:30:00Z,28.4460,-96.3961,0.0,0.1,26.0,0.2,'11111222,11111222,11111222' 
TCOON,ioos:station:TCOON:057:1,2015-02-01T11:36:00Z,28.4460,-96.3961,0.0,0.2,40.0,0.4,'11111222,11111222,11111222' 
TCOON,ioos:station:TCOON:057:1,2015-02-01T11:42:00Z,28.4460,-96.3961,0.0,0.5,65.0,0.6,'11111222,11111222,11111222' 
TCOON,ioos:station:TCOON:057:1,2015-02-01T11:48:00Z,28.4460,-96.3961,0.0,0.7,69.0,0.7,'11111222,11111222,11111222' 
TCOON,ioos:station:TCOON:057:1,2015-02-01T11:54:00Z,28.4460,-96.3961,0.0,0.9,67.0,1.0,'11111222,11111222,11111222' 
TCOON,ioos:station:TCOON:057:1,2015-02-01T12:00:00Z,28.4460,-96.3961,0.0,0.9,77.0,1.2,'11111222,11111222,11111222' 
TCOON,ioos:station:TCOON:057:1,2015-02-01T12:06:00Z,28.4460,-96.3961,0.0,0.8,26.0,1.0,'11111222,11111222,11111222' 
TCOON,ioos:station:TCOON:057:1,2015-02-01T12:12:00Z,28.4460,-96.3961,0.0,1.2,38.0,1.3,'11111222,11111222,11111222' 
TCOON,ioos:station:TCOON:057:1,2015-02-01T12:18:00Z,28.4460,-96.3961,0.0,1.2,38.0,1.3,'1111122,1111122,1111122' 
TCOON,ioos:station:TCOON:057:1,2015-02-01T12:24:00Z,28.4460,-96.3961,0.0,0.9,46.0,1.2,'11111222,11111222,11111222' 
TCOON,ioos:station:TCOON:057:1,2015-02-01T12:30:00Z,28.4460,-96.3961,0.0,0.5,34.0,0.8,'11111222,11111222,11111222' 
TCOON,ioos:station:TCOON:057:1,2015-02-01T12:36:00Z,28.4460,-96.3961,0.0,1.4,72.0,1.4,'11111222,11111222,11111222' 
TCOON,ioos:station:TCOON:057:1,2015-02-01T12:42:00Z,28.4460,-96.3961,0.0,1.7,87.0,1.8,'11111222,11111222,11111222' 
TCOON,ioos:station:TCOON:057:1,2015-02-01T12:48:00Z,28.4460,-96.3961,0.0,1.8,94.0,2.0,'11111222,11111222,11111222' 
TCOON,ioos:station:TCOON:057:1,2015-02-01T12:54:00Z,28.4460,-96.3961,0.0,1.5,102.0,1.7,'11111222,11111222,11111222' 
TCOON,ioos:station:TCOON:057:1,2015-02-01T13:00:00Z,28.4460,-96.3961,0.0,1.5,120.0,1.7,'11111222,11111222,11111222' 
TCOON,ioos:station:TCOON:057:1,2015-02-01T13:06:00Z,28.4460,-96.3961,0.0,1.5,117.0,1.7,'11111222,11111222,11111222' 
TCOON,ioos:station:TCOON:057:1,2015-02-01T13:12:00Z,28.4460,-96.3961,0.0,1.5,119.0,1.6,'11111222,11111222,11111222' 
TCOON,ioos:station:TCOON:057:1,2015-02-01T13:18:00Z,28.4460,-96.3961,0.0,1.5,119.0,1.6,'1111122,1111122,1111122' 
TCOON,ioos:station:TCOON:057:1,2015-02-01T13:24:00Z,28.4460,-96.3961,0.0,1.6,111.0,2.2,'11111222,11111222,11111222' 
TCOON,ioos:station:TCOON:057:1,2015-02-01T13:30:00Z,28.4460,-96.3961,0.0,1.0,119.0,2.0,'11111222,11111222,11111222' 
TCOON,ioos:station:TCOON:057:1,2015-02-01T13:36:00Z,28.4460,-96.3961,0.0,0.1,118.0,0.9,'11111222,11111222,11111222' 
TCOON,ioos:station:TCOON:057:1,2015-02-01T13:42:00Z,28.4460,-96.3961,0.0,0.0,119.0,0.0,'11111222,11111222,11111222' 
TCOON,ioos:station:TCOON:057:1,2015-02-01T13:48:00Z,28.4460,-96.3961,0.0,0.7,229.0,0.7,'11111222,11111222,11111222' 
TCOON,ioos:station:TCOON:057:1,2015-02-01T13:54:00Z,28.4460,-96.3961,0.0,0.3,178.0,0.7,'11111222,11111222,11111222' 
TCOON,ioos:station:TCOON:057:1,2015-02-01T14:00:00Z,28.4460,-96.3961,0.0,0.0,178.0,0.1,'11111222,11111222,11111222' 
TCOON,ioos:station:TCOON:057:1,2015-02-01T14:06:00Z,28.4460,-96.3961,0.0,0.6,178.0,0.7,'11111222,11111222,11111222' 
TCOON,ioos:station:TCOON:057:1,2015-02-01T14:12:00Z,28.4460,-96.3961,0.0,0.8,58.0,0.9,'11111222,11111222,11111222' 
TCOON,ioos:station:TCOON:057:1,2015-02-01T14:18:00Z,28.4460,-96.3961,0.0,0.8,58.0,0.9,'1111122,1111122,1111122' 
TCOON,ioos:station:TCOON:057:1,2015-02-01T14:24:00Z,28.4460,-96.3961,0.0,1.6,59.0,1.8,'11111222,11111222,11111222' 
TCOON,ioos:station:TCOON:057:1,2015-02-01T14:30:00Z,28.4460,-96.3961,0.0,1.2,70.0,1.6,'11111222,11111222,11111222' 
TCOON,ioos:station:TCOON:057:1,2015-02-01T14:36:00Z,28.4460,-96.3961,0.0,1.1,62.0,1.4,'11111222,11111222,11111222' 
TCOON,ioos:station:TCOON:057:1,2015-02-01T14:42:00Z,28.4460,-96.3961,0.0,0.8,71.0,1.1,'11111222,11111222,11111222' 
TCOON,ioos:station:TCOON:057:1,2015-02-01T14:48:00Z,28.4460,-96.3961,0.0,0.8,54.0,0.9,'11111222,11111222,11111222' 
TCOON,ioos:station:TCOON:057:1,2015-02-01T14:54:00Z,28.4460,-96.3961,0.0,1.4,81.0,1.6,'11111222,11111222,11111222' 
TCOON,ioos:station:TCOON:057:1,2015-02-01T15:00:00Z,28.4460,-96.3961,0.0,2.3,97.0,2.4,'11111222,11111222,11111222' 
TCOON,ioos:station:TCOON:057:1,2015-02-01T15:06:00Z,28.4460,-96.3961,0.0,2.1,111.0,2.6,'11111222,11111222,11111222' 
TCOON,ioos:station:TCOON:057:1,2015-02-01T15:12:00Z,28.4460,-96.3961,0.0,2.1,111.0,2.6,'1111122,1111122,1111122' 
TCOON,ioos:station:TCOON:057:1,2015-02-01T15:18:00Z,28.4460,-96.3961,0.0,1.6,130.0,2.2,'11111222,11111222,11111222' 
TCOON,ioos:station:TCOON:057:1,2015-02-01T15:24:00Z,28.4460,-96.3961,0.0,2.0,127.0,2.2,'11111222,11111222,11111222' 
TCOON,ioos:station:TCOON:057:1,2015-02-01T15:30:00Z,28.4460,-96.3961,0.0,2.4,123.0,2.5,'11111222,11111222,11111222' 
TCOON,ioos:station:TCOON:057:1,2015-02-01T15:36:00Z,28.4460,-96.3961,0.0,2.4,131.0,2.7,'11111222,11111222,11111222' 
TCOON,ioos:station:TCOON:057:1,2015-02-01T15:42:00Z,28.4460,-96.3961,0.0,2.7,136.0,2.8,'11111222,11111222,11111222' 
TCOON,ioos:station:TCOON:057:1,2015-02-01T15:48:00Z,28.4460,-96.3961,0.0,2.4,132.0,2.7,'11111222,11111222,11111222' 
TCOON,ioos:station:TCOON:057:1,2015-02-01T15:54:00Z,28.4460,-96.3961,0.0,2.3,133.0,2.5,'11111222,11111222,11111222' 
TCOON,ioos:station:TCOON:057:1,2015-02-01T16:00:00Z,28.4460,-96.3961,0.0,2.8,148.0,3.0,'11111222,11111222,11111222' 
TCOON,ioos:station:TCOON:057:1,2015-02-01T16:06:00Z,28.4460,-96.3961,0.0,2.6,163.0,3.1,'11111222,11111222,11111222' 
TCOON,ioos:station:TCOON:057:1,2015-02-01T16:12:00Z,28.4460,-96.3961,0.0,3.2,147.0,3.5,'11111222,11111222,11111222' 
TCOON,ioos:station:TCOON:057:1,2015-02-01T16:18:00Z,28.4460,-96.3961,0.0,3.2,147.0,3.5,'1111122,1111122,1111122' 
TCOON,ioos:station:TCOON:057:1,2015-02-01T16:24:00Z,28.4460,-96.3961,0.0,3.0,122.0,3.5,'11111222,11111222,11111222' 
TCOON,ioos:station:TCOON:057:1,2015-02-01T16:30:00Z,28.4460,-96.3961,0.0,2.9,119.0,3.1,'11111222,11111222,11111222' 
TCOON,ioos:station:TCOON:057:1,2015-02-01T16:36:00Z,28.4460,-96.3961,0.0,3.3,121.0,3.4,'11111222,11111222,11111222' 
TCOON,ioos:station:TCOON:057:1,2015-02-01T16:42:00Z,28.4460,-96.3961,0.0,2.6,127.0,3.3,'11111222,11111222,11111222' 
TCOON,ioos:station:TCOON:057:1,2015-02-01T16:48:00Z,28.4460,-96.3961,0.0,2.1,133.0,2.4,'11111222,11111222,11111222' 
TCOON,ioos:station:TCOON:057:1,2015-02-01T16:54:00Z,28.4460,-96.3961,0.0,2.1,136.0,2.2,'11111222,11111222,11111222' 
TCOON,ioos:station:TCOON:057:1,2015-02-01T17:00:00Z,28.4460,-96.3961,0.0,2.2,119.0,2.3,'11111222,11111222,11111222' 
TCOON,ioos:station:TCOON:057:1,2015-02-01T17:06:00Z,28.4460,-96.3961,0.0,2.5,111.0,2.6,'11111222,11111222,11111222' 
TCOON,ioos:station:TCOON:057:1,2015-02-01T17:12:00Z,28.4460,-96.3961,0.0,2.2,104.0,2.5,'11111222,11111222,11111222' 
TCOON,ioos:station:TCOON:057:1,2015-02-01T17:18:00Z,28.4460,-96.3961,0.0,2.2,104.0,2.5,'1111122,1111122,1111122' 
TCOON,ioos:station:TCOON:057:1,2015-02-01T17:24:00Z,28.4460,-96.3961,0.0,1.9,104.0,2.4,'11111222,11111222,11111222' 
TCOON,ioos:station:TCOON:057:1,2015-02-01T17:30:00Z,28.4460,-96.3961,0.0,1.8,107.0,2.3,'11111222,11111222,11111222' 
TCOON,ioos:station:TCOON:057:1,2015-02-01T17:36:00Z,28.4460,-96.3961,0.0,1.8,110.0,2.1,'11111222,11111222,11111222' 
TCOON,ioos:station:TCOON:057:1,2015-02-01T17:42:00Z,28.4460,-96.3961,0.0,2.1,113.0,2.3,'11111222,11111222,11111222' 
TCOON,ioos:station:TCOON:057:1,2015-02-01T17:48:00Z,28.4460,-96.3961,0.0,1.6,107.0,2.0,'11111222,11111222,11111222' 
TCOON,ioos:station:TCOON:057:1,2015-02-01T17:54:00Z,28.4460,-96.3961,0.0,2.5,127.0,3.1,'11111222,11111222,11111222' 
TCOON,ioos:station:TCOON:057:1,2015-02-01T18:00:00Z,28.4460,-96.3961,0.0,2.1,129.0,2.8,'11111222,11111222,11111222' 
TCOON,ioos:station:TCOON:057:1,2015-02-01T18:06:00Z,28.4460,-96.3961,0.0,1.4,133.0,2.9,'11111222,11111222,11111222' 
TCOON,ioos:station:TCOON:057:1,2015-02-01T18:12:00Z,28.4460,-96.3961,0.0,2.7,135.0,3.3,'11111222,11111222,11111222' 
TCOON,ioos:station:TCOON:057:1,2015-02-01T18:18:00Z,28.4460,-96.3961,0.0,2.7,135.0,3.3,'1111122,1111122,1111122' 
TCOON,ioos:station:TCOON:057:1,2015-02-01T18:24:00Z,28.4460,-96.3961,0.0,2.1,145.0,3.3,'11111222,11111222,11111222' 
TCOON,ioos:station:TCOON:057:1,2015-02-01T18:30:00Z,28.4460,-96.3961,0.0,3.3,174.0,4.1,'11111222,11111222,11111222' 
TCOON,ioos:station:TCOON:057:1,2015-02-01T18:36:00Z,28.4460,-96.3961,0.0,3.7,171.0,5.0,'11111222,11111222,11111222' 
TCOON,ioos:station:TCOON:057:1,2015-02-01T18:42:00Z,28.4460,-96.3961,0.0,3.8,170.0,4.3,'11111222,11111222,11111222' 
TCOON,ioos:station:TCOON:057:1,2015-02-01T18:48:00Z,28.4460,-96.3961,0.0,5.0,216.0,6.4,'11111222,11111222,11111222' 
TCOON,ioos:station:TCOON:057:1,2015-02-01T18:54:00Z,28.4460,-96.3961,0.0,4.5,213.0,7.0,'11111222,11111222,11111222' 
TCOON,ioos:station:TCOON:057:1,2015-02-01T19:00:00Z,28.4460,-96.3961,0.0,5.3,218.0,6.6,'11111222,11111222,11111222' 
TCOON,ioos:station:TCOON:057:1,2015-02-01T19:06:00Z,28.4460,-96.3961,0.0,5.8,222.0,6.9,'11111222,11111222,11111222' 
TCOON,ioos:station:TCOON:057:1,2015-02-01T19:12:00Z,28.4460,-96.3961,0.0,5.2,208.0,7.2,'11111222,11111222,11111222' 
TCOON,ioos:station:TCOON:057:1,2015-02-01T19:18:00Z,28.4460,-96.3961,0.0,5.2,208.0,7.2,'1111122,1111122,1111122' 
TCOON,ioos:station:TCOON:057:1,2015-02-01T19:24:00Z,28.4460,-96.3961,0.0,5.1,216.0,6.6,'11111222,11111222,11111222' 
TCOON,ioos:station:TCOON:057:1,2015-02-01T19:30:00Z,28.4460,-96.3961,0.0,5.5,227.0,6.6,'11111222,11111222,11111222' 
TCOON,ioos:station:TCOON:057:1,2015-02-01T19:36:00Z,28.4460,-96.3961,0.0,5.1,217.0,6.1,'11111222,11111222,11111222' 
TCOON,ioos:station:TCOON:057:1,2015-02-01T19:42:00Z,28.4460,-96.3961,0.0,5.4,224.0,6.3,'11111222,11111222,11111222' 
TCOON,ioos:station:TCOON:057:1,2015-02-01T19:48:00Z,28.4460,-96.3961,0.0,5.3,208.0,6.5,'11111222,11111222,11111222' 
TCOON,ioos:station:TCOON:057:1,2015-02-01T19:54:00Z,28.4460,-96.3961,0.0,5.0,208.0,6.6,'11111222,11111222,11111222' 
TCOON,ioos:station:TCOON:057:1,2015-02-01T20:00:00Z,28.4460,-96.3961,0.0,5.2,203.0,6.8,'11111222,11111222,11111222' 
TCOON,ioos:station:TCOON:057:1,2015-02-01T20:06:00Z,28.4460,-96.3961,0.0,4.8,210.0,5.9,'11111222,11111222,11111222' 
TCOON,ioos:station:TCOON:057:1,2015-02-01T20:12:00Z,28.4460,-96.3961,0.0,5.2,188.0,6.5,'11111222,11111222,11111222' 
TCOON,ioos:station:TCOON:057:1,2015-02-01T20:18:00Z,28.4460,-96.3961,0.0,5.2,188.0,6.5,'1111122,1111122,1111122' 
TCOON,ioos:station:TCOON:057:1,2015-02-01T20:24:00Z,28.4460,-96.3961,0.0,5.1,186.0,6.0,'11111222,11111222,11111222' 